星链-11111 [DTC] (STARLINK-11111 [DTC] )

导读

STARLINK-11111是美国太空探索技术公司星链星座的一员,于2024年5月14日发射入轨。星链计划旨在构建全球卫星互联网星座,为全球偏远地区、海洋等网络覆盖薄弱区域提供高速宽带服务。该卫星延续星链标准设计,搭载相关通信载荷,参与低轨卫星通信网络组网,服务全球互联网接入需求。

基本信息
目录编号:
59764
目录名称:
STARLINK-11111
国际标识:
2024-091M
轨道中心:
EARTH
卫星名称:
星链-11111 [DTC]
卫星全名:
星链-11111 [DTC] (STARLINK-11111 [DTC] )
卫星状态:
已陨落 最后检测时间 2026-08-17
发射日期:
2024-05-14 UTC
国别 :
美国 (US)
星等 :
--
轨道信息
数据来源 国际轨道数据
星历时间: 2026-08-17T22:59:16+0800
轨道信息已过期24天
半长轴: 6554.894km
偏心率: 0.0017751
轨道倾角: 53.128°
近地点辐角 229.216°
升交点赤经 119.946°
平近点角 130.735°
近地点: 165.121km
远地点: 188.393km
周期: 88.025分钟
每日圈数: 16.358909
详细信息
固有亮度:
5
最大亮度:
0.6
卫星平台:
Starlink v2.0 mini
覆盖范围:
全球
运营商:
太空探索技术公司
运营商所在国:
美国
制造商(研发单位):
太空探索技术公司
制造商所在国:
美国
使用方式:
暂无
卫星简介
星链(Starlink)计划是由太空探索技术公司(SpaceX)提出的一个巨型低轨卫星互联网星座项目,计划在2019年至2024年间在太空搭建由约1.2万颗卫星组成的“星链”网络,其中1584颗将部署在地球上空550千米处的近地轨道,并从2020年开始工作。该卫星仍在工作。
与全量物体交会距离演化趋势
与全量物体交会风险概率演化趋势